Regional Weather Roundup
Issued by NWS

Home | Current Version | Previous Version | Text Only | Print | Product List | Glossary Off
Versions: 1 2 3 4 5 6 7 8 9 10 11 12 13 14 15 16 17 18 19 20 21 22 23 24 25 26 27 28 29 30 31 32 33 34 35 36 37 38 39 40 41 42 43 44 45 46 47 48 49 50

000
ASUS43 KMKX 271911
RWRWI

WISCONSIN REGIONAL WEATHER ROUNDUP
NATIONAL WEATHER SERVICE MILWAUKEE/SULLIVAN WI
200 PM CDT SAT MAY 27 2017

NOTE: "FAIR" INDICATES FEW OR NO CLOUDS BELOW 12,000 FEET WITH NO
SIGNIFICANT WEATHER AND/OR OBSTRUCTIONS TO VISIBILITY.

WIZ001-002-006>008-014>016-023>028-272000-
NORTHWEST WISCONSIN

CITY           SKY/WX    TMP DP  RH WIND       PRES   REMARKS
SUPERIOR ARPT  NOT AVBL
ASHLAND        MOSUNNY   71  44  37 W10       29.86S
HAYWARD        PTSUNNY   69  46  43 SW10      29.88S
SIREN          CLOUDY    69  44  40 SW7       29.89F
CUMBERLAND     CLOUDY    66  45  45 W9G16     29.91S
RICE LAKE      CLOUDY    69  43  38 SW7G16    29.92R
CHETEK         CLOUDY    68  48  48 W6        29.91R
LADYSMITH      CLOUDY    70  48  44 W14       29.91R
EAU CLAIRE     CLOUDY    68  46  45 N9        29.87F
MENOMONIE      RAIN      66  48  50 W13G18    29.90F
NEW RICHMOND   CLOUDY    67  44  41 W5        29.91F
OSCEOLA        CLOUDY    70  43  38 W8        29.93F
$$

WIZ003>005-009-010-017-018-272000-
NORTH CENTRAL WISCONSIN

CITY           SKY/WX    TMP DP  RH WIND       PRES   REMARKS
MANITOWISH WTR MOSUNNY   71  47  41 SW10G16   29.84F
ARBOR VITAE    MOSUNNY   72  47  41 SW12      29.85S
WOODRUFF       MOSUNNY   72  47  41 SW12      29.85S
RHINELANDER    SUNNY     77  48  35 W10G21    29.86F
EAGLE RIVER    MOSUNNY   73  42  32 W9G18     29.84F
LAND O LAKES   MOSUNNY   75  40  28 W8        29.85F
PHILLIPS       CLOUDY    68  47  47 W6        29.87S
TOMAHAWK       PTSUNNY   72  48  41 W9        29.87S
MEDFORD        PTSUNNY   69  48  46 W8        29.88S
MERRILL        MOSUNNY   73  49  42 SW14      29.87S
$$

WIZ029-030-035-036-043>047-272000-
CENTRAL WISCONSIN

CITY           SKY/WX    TMP DP  RH WIND       PRES   REMARKS
WAUSAU         PTSUNNY   74  50  42 W12G17    29.85F
MOSINEE        MOSUNNY   73  50  43 SW7G17    29.88F
MARSHFIELD     CLOUDY    72  49  44 W13G20    29.87S
STEVENS POINT  PTSUNNY   73  49  43 W9        29.87F
WAUPACA        MOSUNNY   78  58  49 CALM      29.86F
WAUTOMA        CLOUDY    75  59  57 S12       29.86F
WISC RAPIDS    MOSUNNY   76  51  41 S9        29.88S
CAMP DOUGLAS   CLOUDY    74  54  48 W12       29.88S
$$

WIZ011>013-019>022-031-037>040-048>050-272000-
NORTHEAST WISCONSIN

CITY           SKY/WX    TMP DP  RH WIND       PRES   REMARKS
ANTIGO         MOSUNNY   71  53  51 W8G17     29.87F
SHAWANO        PTSUNNY   77  57  50 S7        29.85F
OCONTO         MOSUNNY   75  51  42 S10       29.85F
STURGEON BAY   SUNNY     71  53  52 S16       29.87F
GREEN BAY      CLOUDY    74  59  59 S14       29.87F
MANITOWOC      SUNNY     68  51  54 S15       29.89F
APPLETON       MOSUNNY   73  54  49 MISG      29.87F
CLINTONVILLE   PTSUNNY   75  55  50 SW14      29.85F
OSHKOSH        MOSUNNY   74  57  55 SW10      29.87F
$$

WIZ032>034-041-042-053>061-272000-
SOUTHWEST WISCONSIN

CITY           SKY/WX    TMP DP  RH WIND       PRES   REMARKS
LA CROSSE      CLOUDY    75  53  46 NW3       29.89S
SPARTA         CLOUDY    73  51  45 W10       29.91R
VIROQUA        CLOUDY    72  46  39 SW8       29.92S
BOSCOBEL       CLOUDY    73  59  61 W6        29.90F
PRAIRIE DU CHI CLOUDY    71  57  61 S5        29.90F
PLATTEVILLE    PTSUNNY   70  63  77 CALM      29.92F
$$

WIZ056-057-062-063-064-067-068-272000-
SOUTH CENTRAL WISCONSIN

CITY           SKY/WX    TMP DP  RH WIND       PRES   REMARKS
REEDSBURG      CLOUDY    69  59  69 SW7       29.90F
BARABOO/DELLS  CLOUDY    69  57  65 SW6       29.90F
LONE ROCK      CLOUDY    71  59  65 CALM      29.90F
MINERAL POINT  CLOUDY    72  63  73 W7        29.92S
MADISON        PTSUNNY   72  59  63 VRB5      29.89F
MIDDLETON      CLOUDY    74  61  63 W6        29.90F
WATERTOWN      MOSUNNY   72  58  62 S3        29.89F
MONROE         CLOUDY    72  57  60 SW5       29.90F
JANESVILLE     MOSUNNY   73  59  60 SW6       29.90F
$$

WIZ051-052-058>065-066-070>072-272000-
SOUTHEAST WISCONSIN

CITY           SKY/WX    TMP DP  RH WIND       PRES   REMARKS
MILWAUKEE      MOSUNNY   71  55  56 SE12      29.90F
WAUKESHA       PTSUNNY   72  55  56 SW6       29.91F
MILWAUKEE/TIMM MOSUNNY   72  54  53 SW3       29.91S
RACINE         SUNNY     69  53  56 SE13      29.93S
KENOSHA        SUNNY     72  57  59 S7        29.91S
FOND DU LAC    MOSUNNY   74  54  49 SW13      29.89F
SHEBOYGAN      SUNNY     72  57  59 S13       29.89F
WEST BEND      PTSUNNY   72  59  64 SW5       29.90F
JUNEAU         PTSUNNY   70  58  64 SW8       29.90F
$$

LSZ147-162-272000-
LAKE SUPERIOR

STATION/POSITION TIME  TEMP    WIND        PRES    WAVE
                       AIR SEA DIR/SP/G            HT/PER
                 (UTC) (F)     (DEG/KT/KT) (MB)    (FT/S)
W MID LAKE BUOY  1850   42 38  220/  8/ 10 1010.8R   0
DEVILS ISLAND    1800   59     210/  7/ 10 1010.5R
SAXON HARBOR     1840   66      50/  6/  6 1010.8R
$$

LMZ867-665-643>646-272000-
LAKE MICHIGAN

STATION/POSITION TIME  TEMP    WIND        PRES    WAVE
                       AIR SEA DIR/SP/G            HT/PER
                 (UTC) (F)     (DEG/KT/KT) (MB)    (FT/S)
CHAMBERS ISLAND  1840   71     150/  6/ 13 1011.2S
N MID LAKE BUOY  1850   46 43  200/  6/  8 1013.4F   0
NORTHPORT PIER   1840   60     140/ 12/ 14 1011.5F
KEWAUNEE LAKESHO 1848   54     170/ 10/ 11 1011.9F
SHEBOYGAN LAKESH 1900   53     160/ 12/ 13 1012.3F
PORT WASHINGTON  1840   60     190/  4/  6 1013.9S
ATWATER BUOY     1809   53     160/  6/  6 1013.3F
MILWAUKEE LAKESH 1850   56      70/  2/  2   N/A
S MID LAKE BUOY  1850   53 50  310/  4/  4 1013.5S   0
KENOSHA   LAKESH 1800   60     140/  5/  6 1013.2
$$

TC  - TEMPERATURE IN CELSIUS
VSB - VISIBILITY IN STATUTE MILES
WCI - WIND CHILL INDEX
HX  - HEAT INDEX





USA.gov is the U.S. government's official web portal to all federal, state and local government web resources and services.